Year,Month,Day,Hour,Minute,Value (Times are PST for windgust in km/hr)
2014,06,20,00,00,45.10
2014,06,20,00,01,54.70
2014,06,20,00,02,51.50
2014,06,20,00,03,54.70
2014,06,20,00,04,48.30
2014,06,20,00,05,53.10
2014,06,20,00,06,51.50
2014,06,20,00,07,57.90
2014,06,20,00,08,53.10
2014,06,20,00,09,53.10
2014,06,20,00,10,49.90
2014,06,20,00,11,53.10
2014,06,20,00,12,49.90
2014,06,20,00,13,48.30
2014,06,20,00,14,49.90
2014,06,20,00,15,46.70
2014,06,20,00,16,53.10
2014,06,20,00,17,59.50
2014,06,20,00,18,53.10
2014,06,20,00,19,48.30
2014,06,20,00,20,53.10
2014,06,20,00,21,56.30
2014,06,20,00,22,51.50
2014,06,20,00,23,51.50
2014,06,20,00,24,53.10
2014,06,20,00,25,53.10
2014,06,20,00,26,51.50
2014,06,20,00,27,53.10
2014,06,20,00,28,53.10
2014,06,20,00,29,49.90
2014,06,20,00,30,48.30
2014,06,20,00,31,51.50
2014,06,20,00,32,61.20
2014,06,20,00,33,61.20
2014,06,20,00,34,54.70
2014,06,20,00,35,54.70
2014,06,20,00,36,53.10
2014,06,20,00,37,57.90
2014,06,20,00,38,67.60
2014,06,20,00,39,67.60
2014,06,20,00,40,57.90
2014,06,20,00,41,53.10
2014,06,20,00,42,67.60
2014,06,20,00,43,64.40
2014,06,20,00,44,61.20
2014,06,20,00,45,56.30
2014,06,20,00,46,61.20
2014,06,20,00,47,57.90
2014,06,20,00,48,53.10
2014,06,20,00,49,56.30
2014,06,20,00,50,57.90
2014,06,20,00,51,57.90
2014,06,20,00,52,57.90
2014,06,20,00,53,51.50
2014,06,20,00,54,54.70
2014,06,20,00,55,59.50
2014,06,20,00,56,57.90
2014,06,20,00,57,56.30
2014,06,20,00,58,66.00
2014,06,20,00,59,59.50
2014,06,20,01,00,62.70
2014,06,20,01,01,64.40
2014,06,20,01,02,64.40
2014,06,20,01,03,64.40
2014,06,20,01,04,62.70
2014,06,20,01,05,64.40
2014,06,20,01,06,64.40
2014,06,20,01,07,62.70
2014,06,20,01,08,53.10
2014,06,20,01,09,54.70
2014,06,20,01,10,61.20
2014,06,20,01,11,54.70
2014,06,20,01,12,49.90
2014,06,20,01,13,56.30
2014,06,20,01,14,51.50
2014,06,20,01,15,51.50
2014,06,20,01,16,48.30
2014,06,20,01,17,46.70
2014,06,20,01,18,49.90
2014,06,20,01,19,53.10
2014,06,20,01,20,53.10
2014,06,20,01,21,53.10
2014,06,20,01,22,51.50
2014,06,20,01,23,53.10
2014,06,20,01,24,51.50
2014,06,20,01,25,46.70
2014,06,20,01,26,48.30
2014,06,20,01,27,49.90
2014,06,20,01,28,41.80
2014,06,20,01,29,38.60
2014,06,20,01,30,40.20
2014,06,20,01,31,38.60
2014,06,20,01,32,43.50
2014,06,20,01,33,43.50
2014,06,20,01,34,46.70
2014,06,20,01,35,41.80
2014,06,20,01,36,38.60
2014,06,20,01,37,40.20
2014,06,20,01,38,37.00
2014,06,20,01,39,43.50
2014,06,20,01,40,41.80
2014,06,20,01,41,45.10
2014,06,20,01,42,45.10
2014,06,20,01,43,43.50
2014,06,20,01,44,48.30
2014,06,20,01,45,43.50
2014,06,20,01,46,38.60
2014,06,20,01,47,38.60
2014,06,20,01,48,37.00
2014,06,20,01,49,40.20
2014,06,20,01,50,37.00
2014,06,20,01,51,37.00
2014,06,20,01,52,30.60
2014,06,20,01,53,33.80
2014,06,20,01,54,29.00
2014,06,20,01,55,32.20
2014,06,20,01,56,33.80
2014,06,20,01,57,33.80
2014,06,20,01,58,33.80
2014,06,20,01,59,32.20
2014,06,20,02,00,37.00
2014,06,20,02,01,32.20
2014,06,20,02,02,38.60
2014,06,20,02,03,35.40
2014,06,20,02,04,41.80
2014,06,20,02,05,43.50
2014,06,20,02,06,38.60
2014,06,20,02,07,41.80
2014,06,20,02,08,32.20
2014,06,20,02,09,37.00
2014,06,20,02,10,37.00
2014,06,20,02,11,43.50
2014,06,20,02,12,40.20
2014,06,20,02,13,37.00
2014,06,20,02,14,38.60
2014,06,20,02,15,37.00
2014,06,20,02,16,43.50
2014,06,20,02,17,46.70
2014,06,20,02,18,40.20
2014,06,20,02,19,33.80
2014,06,20,02,20,40.20
2014,06,20,02,21,41.80
2014,06,20,02,22,38.60
2014,06,20,02,23,45.10
2014,06,20,02,24,43.50
2014,06,20,02,25,43.50
2014,06,20,02,26,38.60
2014,06,20,02,27,40.20
2014,06,20,02,28,45.10
2014,06,20,02,29,43.50
2014,06,20,02,30,38.60
2014,06,20,02,31,41.80
2014,06,20,02,32,43.50
2014,06,20,02,33,45.10
2014,06,20,02,34,43.50
2014,06,20,02,35,43.50
2014,06,20,02,36,46.70
2014,06,20,02,37,43.50
2014,06,20,02,38,37.00
2014,06,20,02,39,32.20
2014,06,20,02,40,41.80
2014,06,20,02,41,38.60
2014,06,20,02,42,40.20
2014,06,20,02,43,37.00
2014,06,20,02,44,32.20
2014,06,20,02,45,27.40
2014,06,20,02,46,29.00
2014,06,20,02,47,32.20
2014,06,20,02,48,29.00
2014,06,20,02,49,33.80
2014,06,20,02,50,33.80
2014,06,20,02,51,29.00
2014,06,20,02,52,24.20
2014,06,20,02,53,22.50
2014,06,20,02,54,27.40
2014,06,20,02,55,27.40
2014,06,20,02,56,19.30
2014,06,20,02,57,16.10
2014,06,20,02,58,29.00
2014,06,20,02,59,22.50
2014,06,20,03,00,20.90
2014,06,20,03,01,25.70
2014,06,20,03,02,25.70
2014,06,20,03,03,25.70
2014,06,20,03,04,27.40
2014,06,20,03,05,24.20
2014,06,20,03,06,27.40
2014,06,20,03,07,30.60
2014,06,20,03,08,29.00
2014,06,20,03,09,29.00
2014,06,20,03,10,30.60
2014,06,20,03,11,33.80
2014,06,20,03,12,30.60
2014,06,20,03,13,30.60
2014,06,20,03,14,32.20
2014,06,20,03,15,29.00
2014,06,20,03,16,29.00
2014,06,20,03,17,32.20
2014,06,20,03,18,29.00
2014,06,20,03,19,32.20
2014,06,20,03,20,33.80
2014,06,20,03,21,29.00
2014,06,20,03,22,32.20
2014,06,20,03,23,41.80
2014,06,20,03,24,41.80
2014,06,20,03,25,29.00
2014,06,20,03,26,30.60
2014,06,20,03,27,35.40
2014,06,20,03,28,38.60
2014,06,20,03,29,33.80
2014,06,20,03,30,25.70
2014,06,20,03,31,33.80
2014,06,20,03,32,37.00
2014,06,20,03,33,32.20
2014,06,20,03,34,33.80
2014,06,20,03,35,32.20
2014,06,20,03,36,30.60
2014,06,20,03,37,30.60
2014,06,20,03,38,30.60
2014,06,20,03,39,32.20
2014,06,20,03,40,32.20
2014,06,20,03,41,32.20
2014,06,20,03,42,33.80
2014,06,20,03,43,32.20
2014,06,20,03,44,35.40
2014,06,20,03,45,32.20
2014,06,20,03,46,30.60
2014,06,20,03,47,33.80
2014,06,20,03,48,29.00
2014,06,20,03,49,27.40
2014,06,20,03,50,32.20
2014,06,20,03,51,32.20
2014,06,20,03,52,29.00
2014,06,20,03,53,32.20
2014,06,20,03,54,25.70
2014,06,20,03,55,25.70
2014,06,20,03,56,35.40
2014,06,20,03,57,25.70
2014,06,20,03,58,29.00
2014,06,20,03,59,30.60
2014,06,20,04,00,25.70
2014,06,20,04,01,32.20
2014,06,20,04,02,29.00
2014,06,20,04,03,35.40
2014,06,20,04,04,32.20
2014,06,20,04,05,27.40
2014,06,20,04,06,33.80
2014,06,20,04,07,32.20
2014,06,20,04,08,29.00
2014,06,20,04,09,33.80
2014,06,20,04,10,38.60
2014,06,20,04,11,35.40
2014,06,20,04,12,32.20
2014,06,20,04,13,37.00
2014,06,20,04,14,37.00
2014,06,20,04,15,37.00
2014,06,20,04,16,32.20
2014,06,20,04,17,35.40
2014,06,20,04,18,38.60
2014,06,20,04,19,40.20
2014,06,20,04,20,38.60
2014,06,20,04,21,40.20
2014,06,20,04,22,46.70
2014,06,20,04,23,41.80
2014,06,20,04,24,38.60
2014,06,20,04,25,43.50
2014,06,20,04,26,48.30
2014,06,20,04,27,49.90
2014,06,20,04,28,46.70
2014,06,20,04,29,46.70
2014,06,20,04,30,48.30
2014,06,20,04,31,43.50
2014,06,20,04,32,48.30
2014,06,20,04,33,43.50
2014,06,20,04,34,35.40
2014,06,20,04,35,38.60
2014,06,20,04,36,41.80
2014,06,20,04,37,46.70
2014,06,20,04,38,43.50
2014,06,20,04,39,41.80
2014,06,20,04,40,46.70
2014,06,20,04,41,43.50
2014,06,20,04,42,41.80
2014,06,20,04,43,43.50
2014,06,20,04,44,37.00
2014,06,20,04,45,38.60
2014,06,20,04,46,37.00
2014,06,20,04,47,35.40
2014,06,20,04,48,29.00
2014,06,20,04,49,33.80
2014,06,20,04,50,32.20
2014,06,20,04,51,41.80
2014,06,20,04,52,38.60
2014,06,20,04,53,37.00
2014,06,20,04,54,33.80
2014,06,20,04,55,40.20
2014,06,20,04,56,35.40
2014,06,20,04,57,35.40
2014,06,20,04,58,32.20
2014,06,20,04,59,27.40
2014,06,20,05,00,30.60
2014,06,20,05,01,30.60
2014,06,20,05,02,32.20
2014,06,20,05,03,33.80
2014,06,20,05,04,30.60
2014,06,20,05,05,30.60
2014,06,20,05,06,33.80
2014,06,20,05,07,35.40
2014,06,20,05,08,35.40
2014,06,20,05,09,38.60
2014,06,20,05,10,37.00
2014,06,20,05,11,38.60
2014,06,20,05,12,37.00
2014,06,20,05,13,38.60
2014,06,20,05,14,33.80
2014,06,20,05,15,37.00
2014,06,20,05,16,37.00
2014,06,20,05,17,41.80
2014,06,20,05,18,38.60
2014,06,20,05,19,40.20
2014,06,20,05,20,38.60
2014,06,20,05,21,37.00
2014,06,20,05,22,40.20
2014,06,20,05,23,40.20
2014,06,20,05,24,33.80
2014,06,20,05,25,35.40
2014,06,20,05,26,40.20
2014,06,20,05,27,38.60
2014,06,20,05,28,40.20
2014,06,20,05,29,35.40
2014,06,20,05,30,38.60
2014,06,20,05,31,40.20
2014,06,20,05,32,40.20
2014,06,20,05,33,37.00
2014,06,20,05,34,43.50
2014,06,20,05,35,40.20
2014,06,20,05,36,40.20
2014,06,20,05,37,41.80
2014,06,20,05,38,45.10
2014,06,20,05,39,41.80
2014,06,20,05,40,41.80
2014,06,20,05,41,45.10
2014,06,20,05,42,37.00
2014,06,20,05,43,33.80
2014,06,20,05,44,38.60
2014,06,20,05,45,35.40
2014,06,20,05,46,32.20
2014,06,20,05,47,35.40
2014,06,20,05,48,40.20
2014,06,20,05,49,35.40
2014,06,20,05,50,32.20
2014,06,20,05,51,29.00
2014,06,20,05,52,30.60
2014,06,20,05,53,35.40
2014,06,20,05,54,30.60
2014,06,20,05,55,32.20
2014,06,20,05,56,37.00
2014,06,20,05,57,37.00
2014,06,20,05,58,40.20
2014,06,20,05,59,29.00
2014,06,20,06,00,25.70
2014,06,20,06,01,33.80
2014,06,20,06,02,27.40
2014,06,20,06,03,22.50
2014,06,20,06,04,25.70
2014,06,20,06,05,27.40
2014,06,20,06,06,35.40
2014,06,20,06,07,29.00
2014,06,20,06,08,29.00
2014,06,20,06,09,30.60
2014,06,20,06,10,35.40
2014,06,20,06,11,29.00
2014,06,20,06,12,37.00
2014,06,20,06,13,30.60
2014,06,20,06,14,29.00
2014,06,20,06,15,30.60
2014,06,20,06,16,33.80
2014,06,20,06,17,30.60
2014,06,20,06,18,32.20
2014,06,20,06,19,33.80
2014,06,20,06,20,30.60
2014,06,20,06,21,30.60
2014,06,20,06,22,32.20
2014,06,20,06,23,27.40
2014,06,20,06,24,32.20
2014,06,20,06,25,27.40
2014,06,20,06,26,35.40
2014,06,20,06,27,30.60
2014,06,20,06,28,30.60
2014,06,20,06,29,33.80
2014,06,20,06,30,30.60
2014,06,20,06,31,25.70
2014,06,20,06,32,30.60
2014,06,20,06,33,32.20
2014,06,20,06,34,32.20
2014,06,20,06,35,27.40
2014,06,20,06,36,30.60
2014,06,20,06,37,30.60
2014,06,20,06,38,30.60
2014,06,20,06,39,27.40
2014,06,20,06,40,33.80
2014,06,20,06,41,27.40
2014,06,20,06,42,25.70
2014,06,20,06,43,30.60
2014,06,20,06,44,32.20
2014,06,20,06,45,35.40
2014,06,20,06,46,29.00
2014,06,20,06,47,29.00
2014,06,20,06,48,30.60
2014,06,20,06,49,32.20
2014,06,20,06,50,33.80
2014,06,20,06,51,33.80
2014,06,20,06,52,30.60
2014,06,20,06,53,33.80
2014,06,20,06,54,25.70
2014,06,20,06,55,29.00
2014,06,20,06,56,25.70
2014,06,20,06,57,29.00
2014,06,20,06,58,29.00
2014,06,20,06,59,29.00
2014,06,20,07,00,27.40
2014,06,20,07,01,30.60
2014,06,20,07,02,27.40
2014,06,20,07,03,32.20
2014,06,20,07,04,35.40
2014,06,20,07,05,32.20
2014,06,20,07,06,33.80
2014,06,20,07,07,30.60
2014,06,20,07,08,27.40
2014,06,20,07,09,22.50
2014,06,20,07,10,24.20
2014,06,20,07,11,30.60
2014,06,20,07,12,27.40
2014,06,20,07,13,25.70
2014,06,20,07,14,30.60
2014,06,20,07,15,30.60
2014,06,20,07,16,30.60
2014,06,20,07,17,22.50
2014,06,20,07,18,25.70
2014,06,20,07,19,22.50
2014,06,20,07,20,20.90
2014,06,20,07,21,17.70
2014,06,20,07,22,20.90
2014,06,20,07,23,22.50
2014,06,20,07,24,20.90
2014,06,20,07,25,27.40
2014,06,20,07,26,24.20
2014,06,20,07,27,17.70
2014,06,20,07,28,20.90
2014,06,20,07,29,19.30
2014,06,20,07,30,16.10
2014,06,20,07,31,24.20
2014,06,20,07,32,20.90
2014,06,20,07,33,20.90
2014,06,20,07,34,27.40
2014,06,20,07,35,24.20
2014,06,20,07,36,20.90
2014,06,20,07,37,22.50
2014,06,20,07,38,20.90
2014,06,20,07,39,20.90
2014,06,20,07,40,27.40
2014,06,20,07,41,25.70
2014,06,20,07,42,24.20
2014,06,20,07,43,19.30
2014,06,20,07,44,22.50
2014,06,20,07,45,17.70
2014,06,20,07,46,17.70
2014,06,20,07,47,19.30
2014,06,20,07,48,20.90
2014,06,20,07,49,24.20
2014,06,20,07,50,25.70
2014,06,20,07,51,14.50
2014,06,20,07,52,22.50
2014,06,20,07,53,20.90
2014,06,20,07,54,22.50
2014,06,20,07,55,32.20
2014,06,20,07,56,32.20
2014,06,20,07,57,27.40
2014,06,20,07,58,27.40
2014,06,20,07,59,33.80
2014,06,20,08,00,27.40
2014,06,20,08,01,32.20
2014,06,20,08,02,30.60
2014,06,20,08,03,29.00
2014,06,20,08,04,24.20
2014,06,20,08,05,27.40
2014,06,20,08,06,32.20
2014,06,20,08,07,29.00
2014,06,20,08,08,25.70
2014,06,20,08,09,30.60
2014,06,20,08,10,29.00
2014,06,20,08,11,27.40
2014,06,20,08,12,24.20
2014,06,20,08,13,17.70
2014,06,20,08,14,14.50
2014,06,20,08,15,17.70
2014,06,20,08,16,25.70
2014,06,20,08,17,27.40
2014,06,20,08,18,25.70
2014,06,20,08,19,20.90
2014,06,20,08,20,25.70
2014,06,20,08,21,24.20
2014,06,20,08,22,22.50
2014,06,20,08,23,25.70
2014,06,20,08,24,22.50
2014,06,20,08,25,19.30
2014,06,20,08,26,25.70
2014,06,20,08,27,24.20
2014,06,20,08,28,25.70
2014,06,20,08,29,20.90
2014,06,20,08,30,24.20
2014,06,20,08,31,25.70
2014,06,20,08,32,29.00
2014,06,20,08,33,29.00
2014,06,20,08,34,22.50
2014,06,20,08,35,25.70
2014,06,20,08,36,27.40
2014,06,20,08,37,29.00
2014,06,20,08,38,25.70
2014,06,20,08,39,30.60
2014,06,20,08,40,30.60
2014,06,20,08,41,32.20
2014,06,20,08,42,32.20
2014,06,20,08,43,24.20
2014,06,20,08,44,22.50
2014,06,20,08,45,24.20
2014,06,20,08,46,25.70
2014,06,20,08,47,24.20
2014,06,20,08,48,24.20
2014,06,20,08,49,25.70
2014,06,20,08,50,20.90
2014,06,20,08,51,25.70
2014,06,20,08,52,25.70
2014,06,20,08,53,24.20
2014,06,20,08,54,29.00
2014,06,20,08,55,29.00
2014,06,20,08,56,27.40
2014,06,20,08,57,29.00
2014,06,20,08,58,20.90
2014,06,20,08,59,29.00
2014,06,20,09,00,24.20
2014,06,20,09,01,25.70
2014,06,20,09,02,29.00
2014,06,20,09,03,25.70
2014,06,20,09,04,27.40
2014,06,20,09,05,29.00
2014,06,20,09,06,29.00
2014,06,20,09,07,27.40
2014,06,20,09,08,30.60
2014,06,20,09,09,29.00
2014,06,20,09,10,29.00
2014,06,20,09,11,33.80
2014,06,20,09,12,27.40
2014,06,20,09,13,24.20
2014,06,20,09,14,29.00
2014,06,20,09,15,33.80
2014,06,20,09,16,19.30
2014,06,20,09,17,24.20
2014,06,20,09,18,25.70
2014,06,20,09,19,24.20
2014,06,20,09,20,19.30
2014,06,20,09,21,29.00
2014,06,20,09,22,27.40
2014,06,20,09,23,30.60
2014,06,20,09,24,29.00
2014,06,20,09,25,27.40
2014,06,20,09,26,25.70
2014,06,20,09,27,24.20
2014,06,20,09,28,33.80
2014,06,20,09,29,29.00
2014,06,20,09,30,24.20
2014,06,20,09,31,24.20
2014,06,20,09,32,29.00
2014,06,20,09,33,20.90
2014,06,20,09,34,20.90
2014,06,20,09,35,30.60
2014,06,20,09,36,29.00
2014,06,20,09,37,20.90
2014,06,20,09,38,30.60
2014,06,20,09,39,11.30
2014,06,20,09,40,25.70
2014,06,20,09,41,27.40
2014,06,20,09,42,19.30
2014,06,20,09,43,25.70
2014,06,20,09,44,29.00
2014,06,20,09,45,27.40
2014,06,20,09,46,35.40
2014,06,20,09,47,24.20
2014,06,20,09,48,25.70
2014,06,20,09,49,33.80
2014,06,20,09,50,32.20
2014,06,20,09,51,33.80
2014,06,20,09,52,33.80
2014,06,20,09,53,32.20
2014,06,20,09,54,33.80
2014,06,20,09,55,29.00
2014,06,20,09,56,37.00
2014,06,20,09,57,30.60
2014,06,20,09,58,33.80
2014,06,20,09,59,29.00
2014,06,20,10,00,32.20
2014,06,20,10,01,35.40
2014,06,20,10,02,33.80
2014,06,20,10,03,32.20
2014,06,20,10,04,32.20
2014,06,20,10,05,30.60
2014,06,20,10,06,32.20
2014,06,20,10,07,38.60
2014,06,20,10,08,27.40
2014,06,20,10,09,30.60
2014,06,20,10,10,35.40
2014,06,20,10,11,30.60
2014,06,20,10,12,37.00
2014,06,20,10,13,35.40
2014,06,20,10,14,32.20
2014,06,20,10,15,29.00
2014,06,20,10,16,35.40
2014,06,20,10,17,29.00
2014,06,20,10,18,25.70
2014,06,20,10,19,27.40
2014,06,20,10,20,35.40
2014,06,20,10,21,33.80
2014,06,20,10,22,33.80
2014,06,20,10,23,35.40
2014,06,20,10,24,37.00
2014,06,20,10,25,38.60
2014,06,20,10,26,38.60
2014,06,20,10,27,35.40
2014,06,20,10,28,30.60
2014,06,20,10,29,33.80
2014,06,20,10,30,40.20
2014,06,20,10,31,35.40
2014,06,20,10,32,33.80
2014,06,20,10,33,33.80
2014,06,20,10,34,40.20
2014,06,20,10,35,32.20
2014,06,20,10,36,37.00
2014,06,20,10,37,38.60
2014,06,20,10,38,37.00
2014,06,20,10,39,37.00
2014,06,20,10,40,38.60
2014,06,20,10,41,37.00
2014,06,20,10,42,35.40
2014,06,20,10,43,41.80
2014,06,20,10,44,41.80
2014,06,20,10,45,40.20
2014,06,20,10,46,41.80
2014,06,20,10,47,37.00
2014,06,20,10,48,38.60
2014,06,20,10,49,38.60
2014,06,20,10,50,35.40
2014,06,20,10,51,38.60
2014,06,20,10,52,30.60
2014,06,20,10,53,30.60
2014,06,20,10,54,38.60
2014,06,20,10,55,35.40
2014,06,20,10,56,43.50
2014,06,20,10,57,37.00
2014,06,20,10,58,40.20
2014,06,20,10,59,40.20
2014,06,20,11,00,40.20
2014,06,20,11,01,41.80
2014,06,20,11,02,40.20
2014,06,20,11,03,40.20
2014,06,20,11,04,35.40
2014,06,20,11,05,40.20
2014,06,20,11,06,40.20
2014,06,20,11,07,38.60
2014,06,20,11,08,35.40
2014,06,20,11,09,37.00
2014,06,20,11,10,37.00
2014,06,20,11,11,46.70
2014,06,20,11,12,40.20
2014,06,20,11,13,40.20
2014,06,20,11,14,37.00
2014,06,20,11,15,33.80
2014,06,20,11,16,40.20
2014,06,20,11,17,37.00
2014,06,20,11,18,37.00
2014,06,20,11,19,46.70
2014,06,20,11,20,45.10
2014,06,20,11,21,37.00
2014,06,20,11,22,49.90
2014,06,20,11,23,37.00
2014,06,20,11,24,43.50
2014,06,20,11,25,40.20
2014,06,20,11,26,43.50
2014,06,20,11,27,35.40
2014,06,20,11,28,38.60
2014,06,20,11,29,40.20
2014,06,20,11,30,40.20
2014,06,20,11,31,35.40
2014,06,20,11,32,41.80
2014,06,20,11,33,46.70
2014,06,20,11,34,37.00
2014,06,20,11,35,43.50
2014,06,20,11,36,46.70
2014,06,20,11,37,40.20
2014,06,20,11,38,38.60
2014,06,20,11,39,30.60
2014,06,20,11,40,35.40
2014,06,20,11,41,43.50
2014,06,20,11,42,40.20
2014,06,20,11,43,43.50
2014,06,20,11,44,37.00
2014,06,20,11,45,40.20
2014,06,20,11,46,35.40
2014,06,20,11,47,40.20
2014,06,20,11,48,43.50
2014,06,20,11,49,41.80
2014,06,20,11,50,43.50
2014,06,20,11,51,41.80
2014,06,20,11,52,45.10
2014,06,20,11,53,45.10
2014,06,20,11,54,48.30
2014,06,20,11,55,43.50
2014,06,20,11,56,43.50
2014,06,20,11,57,45.10
2014,06,20,11,58,53.10
2014,06,20,11,59,43.50
2014,06,20,12,00,35.40
2014,06,20,12,01,38.60
2014,06,20,12,02,38.60
2014,06,20,12,03,45.10
2014,06,20,12,04,41.80
2014,06,20,12,05,37.00
2014,06,20,12,06,46.70
2014,06,20,12,07,45.10
2014,06,20,12,08,43.50
2014,06,20,12,09,38.60
2014,06,20,12,10,43.50
2014,06,20,12,11,45.10
2014,06,20,12,12,41.80
2014,06,20,12,13,45.10
2014,06,20,12,14,41.80
2014,06,20,12,15,40.20
2014,06,20,12,16,45.10
2014,06,20,12,17,45.10
2014,06,20,12,18,45.10
2014,06,20,12,19,45.10
2014,06,20,12,20,46.70
2014,06,20,12,21,38.60
2014,06,20,12,22,43.50
2014,06,20,12,23,43.50
2014,06,20,12,24,35.40
2014,06,20,12,25,40.20
2014,06,20,12,26,35.40
2014,06,20,12,27,37.00
2014,06,20,12,28,35.40
2014,06,20,12,29,33.80
2014,06,20,12,30,33.80
2014,06,20,12,31,32.20
2014,06,20,12,32,30.60
2014,06,20,12,33,32.20
2014,06,20,12,34,37.00
2014,06,20,12,35,38.60
2014,06,20,12,36,32.20
2014,06,20,12,37,37.00
2014,06,20,12,38,37.00
2014,06,20,12,39,32.20
2014,06,20,12,40,40.20
2014,06,20,12,41,37.00
2014,06,20,12,42,33.80
2014,06,20,12,43,40.20
2014,06,20,12,44,40.20
2014,06,20,12,45,37.00
2014,06,20,12,46,32.20
2014,06,20,12,47,37.00
2014,06,20,12,48,37.00
2014,06,20,12,49,37.00
2014,06,20,12,50,45.10
2014,06,20,12,51,32.20
2014,06,20,12,52,37.00
2014,06,20,12,53,40.20
2014,06,20,12,54,38.60
2014,06,20,12,55,41.80
2014,06,20,12,56,40.20
2014,06,20,12,57,30.60
2014,06,20,12,58,37.00
2014,06,20,12,59,33.80
2014,06,20,13,00,40.20
2014,06,20,13,01,37.00
2014,06,20,13,02,35.40
2014,06,20,13,03,37.00
2014,06,20,13,04,30.60
2014,06,20,13,05,37.00
2014,06,20,13,06,37.00
2014,06,20,13,07,35.40
2014,06,20,13,08,40.20
2014,06,20,13,09,40.20
2014,06,20,13,10,37.00
2014,06,20,13,11,30.60
2014,06,20,13,12,29.00
2014,06,20,13,13,30.60
2014,06,20,13,14,29.00
2014,06,20,13,15,33.80
2014,06,20,13,16,40.20
2014,06,20,13,17,35.40
2014,06,20,13,18,35.40
2014,06,20,13,19,33.80
2014,06,20,13,20,33.80
2014,06,20,13,21,30.60
2014,06,20,13,22,29.00
2014,06,20,13,23,30.60
2014,06,20,13,24,35.40
2014,06,20,13,25,38.60
2014,06,20,13,26,32.20
2014,06,20,13,27,29.00
2014,06,20,13,28,30.60
2014,06,20,13,29,35.40
2014,06,20,13,30,30.60
2014,06,20,13,31,35.40
2014,06,20,13,32,25.70
2014,06,20,13,33,29.00
2014,06,20,13,34,25.70
2014,06,20,13,35,25.70
2014,06,20,13,36,0.00
2014,06,20,13,37,0.00
2014,06,20,13,38,0.00
2014,06,20,13,39,0.00
2014,06,20,13,40,0.00
2014,06,20,13,41,0.00
2014,06,20,13,42,0.00
2014,06,20,13,43,0.00
2014,06,20,13,44,0.00
2014,06,20,13,45,0.00
2014,06,20,13,46,0.00
2014,06,20,13,47,0.00
2014,06,20,13,48,0.00
2014,06,20,13,49,0.00
2014,06,20,13,50,0.00
2014,06,20,13,51,0.00
2014,06,20,13,52,0.00
2014,06,20,13,53,0.00
2014,06,20,13,54,0.00
2014,06,20,13,55,0.00
2014,06,20,13,56,0.00
2014,06,20,13,57,0.00
2014,06,20,13,58,0.00
2014,06,20,13,59,0.00
2014,06,20,14,00,0.00
2014,06,20,14,01,0.00
2014,06,20,14,02,0.00
2014,06,20,14,03,0.00
2014,06,20,14,04,0.00
2014,06,20,14,05,0.00
2014,06,20,14,06,0.00
2014,06,20,14,07,0.00
2014,06,20,14,08,0.00
2014,06,20,14,09,0.00
2014,06,20,14,10,0.00
2014,06,20,14,11,0.00
2014,06,20,14,12,0.00
2014,06,20,14,13,0.00
2014,06,20,14,14,0.00
2014,06,20,14,15,0.00
2014,06,20,14,16,0.00
2014,06,20,14,17,0.00
2014,06,20,14,18,0.00
2014,06,20,14,19,0.00
2014,06,20,14,20,0.00
2014,06,20,14,21,0.00
2014,06,20,14,22,0.00
2014,06,20,14,23,0.00
2014,06,20,14,24,0.00
2014,06,20,14,25,0.00
2014,06,20,14,26,0.00
2014,06,20,14,27,0.00
2014,06,20,14,28,0.00
2014,06,20,14,29,0.00
2014,06,20,14,30,0.00
2014,06,20,14,31,0.00
2014,06,20,14,32,0.00
2014,06,20,14,33,0.00
2014,06,20,14,34,0.00
2014,06,20,14,35,0.00
2014,06,20,14,36,0.00
2014,06,20,14,37,0.00
2014,06,20,14,38,0.00
2014,06,20,14,39,0.00
2014,06,20,14,40,0.00
2014,06,20,14,41,0.00
2014,06,20,14,42,0.00
2014,06,20,14,43,0.00
2014,06,20,14,44,0.00
2014,06,20,14,45,0.00
2014,06,20,14,46,0.00
2014,06,20,14,47,0.00
2014,06,20,14,48,0.00
2014,06,20,14,49,0.00
2014,06,20,14,50,0.00
2014,06,20,14,51,0.00
2014,06,20,14,52,0.00
2014,06,20,14,53,0.00
2014,06,20,14,54,0.00
2014,06,20,14,55,0.00
2014,06,20,14,56,0.00
2014,06,20,14,57,0.00
2014,06,20,14,58,0.00
2014,06,20,14,59,0.00
2014,06,20,15,00,0.00
2014,06,20,15,01,0.00
2014,06,20,15,02,0.00
2014,06,20,15,03,0.00
2014,06,20,15,04,0.00
2014,06,20,15,05,0.00
2014,06,20,15,06,0.00
2014,06,20,15,07,0.00
2014,06,20,15,08,0.00
2014,06,20,15,09,0.00
2014,06,20,15,10,0.00
2014,06,20,15,11,0.00
2014,06,20,15,12,0.00
2014,06,20,15,13,0.00
2014,06,20,15,14,0.00
2014,06,20,15,15,0.00
2014,06,20,15,16,0.00
2014,06,20,15,17,0.00
2014,06,20,15,18,0.00
2014,06,20,15,19,0.00
2014,06,20,15,20,0.00
2014,06,20,15,21,0.00
2014,06,20,15,22,0.00
2014,06,20,15,23,0.00
2014,06,20,15,24,0.00
2014,06,20,15,25,0.00
2014,06,20,15,26,0.00
2014,06,20,15,27,0.00
2014,06,20,15,28,0.00
2014,06,20,15,29,0.00
2014,06,20,15,30,0.00
2014,06,20,15,31,0.00
2014,06,20,15,32,0.00
2014,06,20,15,33,0.00
2014,06,20,15,34,0.00
2014,06,20,15,35,0.00
2014,06,20,15,36,0.00
2014,06,20,15,37,0.00
2014,06,20,15,38,0.00
2014,06,20,15,39,0.00
2014,06,20,15,40,0.00
2014,06,20,15,41,0.00
2014,06,20,15,42,0.00
2014,06,20,15,43,0.00
2014,06,20,15,44,0.00
2014,06,20,15,45,0.00
2014,06,20,15,46,0.00
2014,06,20,15,47,0.00
2014,06,20,15,48,0.00
2014,06,20,15,49,0.00
2014,06,20,15,50,0.00
2014,06,20,15,51,0.00
2014,06,20,15,52,0.00
2014,06,20,15,53,0.00
2014,06,20,15,54,0.00
2014,06,20,15,55,0.00
2014,06,20,15,56,0.00
2014,06,20,15,57,0.00
2014,06,20,15,58,0.00
2014,06,20,15,59,0.00
2014,06,20,16,00,0.00
2014,06,20,16,01,0.00
2014,06,20,16,02,0.00
2014,06,20,16,03,0.00
2014,06,20,16,04,0.00
2014,06,20,16,05,0.00
2014,06,20,16,06,0.00
2014,06,20,16,07,0.00
2014,06,20,16,08,0.00
2014,06,20,16,09,0.00
2014,06,20,16,10,0.00
2014,06,20,16,11,0.00
2014,06,20,16,12,0.00
2014,06,20,16,13,0.00
2014,06,20,16,14,0.00
2014,06,20,16,15,0.00
2014,06,20,16,16,0.00
2014,06,20,16,17,0.00
2014,06,20,16,18,0.00
2014,06,20,16,19,0.00
2014,06,20,16,20,0.00
2014,06,20,16,21,0.00
2014,06,20,16,22,0.00
2014,06,20,16,23,0.00
2014,06,20,16,24,0.00
2014,06,20,16,25,0.00
2014,06,20,16,26,0.00
2014,06,20,16,27,0.00
2014,06,20,16,28,0.00
2014,06,20,16,29,0.00
2014,06,20,16,30,0.00
2014,06,20,16,31,0.00
2014,06,20,16,32,0.00
2014,06,20,16,33,0.00
2014,06,20,16,34,0.00
2014,06,20,16,35,0.00
2014,06,20,16,36,0.00
2014,06,20,16,37,0.00
2014,06,20,16,38,0.00
2014,06,20,16,39,0.00
2014,06,20,16,40,0.00
2014,06,20,16,41,0.00
2014,06,20,16,42,0.00
2014,06,20,16,43,0.00
2014,06,20,16,44,0.00
2014,06,20,16,45,0.00
2014,06,20,16,46,0.00
2014,06,20,16,47,0.00
2014,06,20,16,48,0.00
2014,06,20,16,49,0.00
2014,06,20,16,50,0.00
2014,06,20,16,51,0.00
2014,06,20,16,52,0.00
2014,06,20,16,53,0.00
2014,06,20,16,54,0.00
2014,06,20,16,55,0.00
2014,06,20,16,56,0.00
2014,06,20,16,57,0.00
2014,06,20,16,58,0.00
2014,06,20,16,59,0.00
2014,06,20,17,00,0.00
2014,06,20,17,01,0.00
2014,06,20,17,02,0.00
2014,06,20,17,03,0.00
2014,06,20,17,04,0.00
2014,06,20,17,05,0.00
2014,06,20,17,06,0.00
2014,06,20,17,07,0.00
2014,06,20,17,08,0.00
2014,06,20,17,09,0.00
2014,06,20,17,10,0.00
2014,06,20,17,11,0.00
2014,06,20,17,12,0.00
2014,06,20,17,13,0.00
2014,06,20,17,14,0.00
2014,06,20,17,15,0.00
2014,06,20,17,16,0.00
2014,06,20,17,17,0.00
2014,06,20,17,18,0.00
2014,06,20,17,19,0.00
2014,06,20,17,20,0.00
2014,06,20,17,21,0.00
2014,06,20,17,22,0.00
2014,06,20,17,23,0.00
2014,06,20,17,24,0.00
2014,06,20,17,25,0.00
2014,06,20,17,26,0.00
2014,06,20,17,27,0.00
2014,06,20,17,28,0.00
2014,06,20,17,29,0.00